Location: Unspecified
(49.9820°N, 20.4363°E)
Time: 22:27:11
(UTC+02:00)

ISS - Pass Details

Date: 17 July 2018
Orbit: 402 x 408 km, 51.6° (Epoch: 20 July)

Event Time Altitude Azimuth Distance (km) Brightness Sun altitude
Exits shadow 01:41:11 16° 271° (W) 1,172 -1.6 -17.7°
Maximum altitude 01:43:43 67° 352° (N) 445 -3.5 -17.6°
Drops below altitude 10° 01:47:01 10° 77° (ENE) 1,472 -0.6 -17.4°
Sets 01:49:07 0° 80° (E) 2,335 0.4 -17.3°
